Effective Sunday, March 17, 2024, the National Weather Service National Data Buoy Center will discontinue its Dial-A-Buoy Interactive Voice Response system. For more information, see Service Change Notice 24-06 (PDF).

Station 41004 (LLNR 825) - EDISTO - 41 NM Southeast of Charleston, SC Image indicating link to RSS feed of recent meteorological observations for station 41004


Conditions at 41004 as of
(9:10 am EST)
1410 GMT on 02/23/2024:
     

Click on the graph icon in the table below to see a time series plot of the last five days of that observation.

5-day plot - Wind Direction Wind Direction (WDIR): SW ( 220 deg true )
5-day plot - Wind Speed Wind Speed (WSPD): 25.3 kts
5-day plot - Wind Gust Wind Gust (GST): 31.1 kts
5-day plot - Atmospheric Pressure Atmospheric Pressure (PRES):29.72 in
5-day plot - Air Temperature Air Temperature (ATMP): 66.2 °F
5-day plot - Water Temperature Water Temperature (WTMP): 66.7 °F
5-day plot - Dew Point Dew Point (DEWP): 57.4 °F
5-day plot - Wind Speed at 10 Meters Wind Speed at 10 meters (WSPD10M): 27.2 kts
5-day plot - Wind Speed at 20 Meters Wind Speed at 20 meters (WSPD20M): 29.1 kts
5-day plot -  Wind Speed, Wind Gust and Atmospheric Pressure Combined plot of Wind Speed, Gust, and Air Pressure
Supplemental Measurements
Highest 1-minute Wind Speed
Time (EST)5-day plot - 1-Minute Wind Speed WSPD 5-day plot - 1-Minute Wind Direction WDIR
9:10 am 27.2 kts-
Previous observations
TIME
(EST)
5-day plot - Wind Direction
WDIR
 
5-day plot - Wind Speed
WSPD
kts
5-day plot - Wind Gust
GST
kts
5-day plot - Wave Height
WVHT
ft
5-day plot - Dominant Wave Period
DPD
sec
5-day plot - Average Wave Period
APD
sec
5-day plot - Mean Wave Direction
MWD
 
5-day plot - Atmospheric Pressure
PRES
in
5-day plot - Pressure Tendency
PTDY
in
5-day plot - Air Temperature
ATMP
°F
5-day plot - Water Temperature
WTMP
°F
5-day plot - Dew Point
DEWP
°F
5-day plot - Salinity
SAL
psu
5-day plot - Visibility
VIS
nmi
5-day plot - Tide (above MLLW)
TIDE
ft
2024-02-23 09:00 am SW 25.3 31.1----29.72-0.02 66.4 66.7 57.0---
2024-02-23 08:50 am SW 25.3 31.1 7.9 75.3SSW29.73- 66.4 66.9 56.3---
2024-02-23 08:40 am SW 25.3 33.0----29.72- 66.4 66.9 55.9---
2024-02-23 08:30 am SW 25.3 31.1----29.72- 66.4 66.9 56.3---
2024-02-23 08:20 am SW 25.3 33.0 7.2 65.1SSW29.73- 66.4 66.9 56.7---
2024-02-23 08:10 am SW 25.3 33.0 7.2-5.1SSW29.72- 66.4 66.9 55.9---
2024-02-23 08:00 amSSW 25.3 31.1----29.72-0.04 66.4 67.1 56.3---
2024-02-23 07:50 am SW 23.3 29.1 6.9 64.9SSW29.72- 66.2 67.1 56.5---
2024-02-23 07:40 am SW 25.3 31.1----29.72- 66.2 67.1 55.8---
2024-02-23 07:30 am SW 25.3 31.1----29.73- 66.2 67.1 55.8---
2024-02-23 07:20 am SW 25.3 31.1 7.2 65.1SSW29.74- 66.2 67.1 55.6---
2024-02-23 07:10 am SW 25.3 31.1 7.2-5.1SSW29.73- 66.2 67.1 55.6---
2024-02-23 07:00 am SW 25.3 29.1----29.74-0.04 66.2 67.1 55.4---
2024-02-23 06:50 amSSW 23.3 31.1 6.6 64.8SSW29.73- 66.2 67.1 55.0---
2024-02-23 06:40 amSSW 25.3 31.1----29.73- 66.2 67.1 54.1---
2024-02-23 06:30 amSSW 25.3 31.1----29.73- 66.2 67.1 54.1---
2024-02-23 06:20 amSSW 23.3 31.1 6.2 64.9SSW29.73- 66.4 67.1 53.8---
2024-02-23 06:10 amSSW 23.3 29.1 6.2-4.9SSW29.74- 66.2 67.1 53.8---
2024-02-23 06:00 amSSW 23.3 29.1----29.74-0.06 66.4 67.1 53.6---
2024-02-23 05:50 amSSW 21.4 27.2 6.6 65.2SSW29.75- 66.2 67.1 53.4---
2024-02-23 05:40 amSSW 21.4 27.2----29.75- 66.0 67.1 53.8---
2024-02-23 05:30 amSSW 21.4 25.3----29.75- 65.8 66.9 53.4---
2024-02-23 05:20 amSSW 23.3 27.2 6.9 65.3SSW29.75- 65.8 66.9 52.7---
2024-02-23 05:10 amSSW 21.4 27.2 6.9-5.3SSW29.76- 65.7 66.9 52.5---
2024-02-23 05:00 amSSW 23.3 27.2----29.76-0.07 65.7 67.1 52.0---
2024-02-23 04:50 amSSW 21.4 29.1 6.6 75.2SSW29.76- 65.7 66.7 52.9---
2024-02-23 04:40 amSSW 23.3 27.2----29.77- 65.5 66.7 52.7---
2024-02-23 04:30 amSSW 21.4 27.2----29.78- 65.7 66.7 53.6---
2024-02-23 04:20 amSSW 21.4 27.2 7.2 65.2SSW29.78- 65.5 66.7 53.1---
2024-02-23 04:10 amSSW 21.4 25.3 7.2-5.2SSW29.78- 65.7 66.7 53.2---
2024-02-23 04:00 am SW 21.4 27.2----29.78-0.05 65.7 66.7 53.6---
2024-02-23 03:50 am SW 23.3 29.1 6.9 65.4SSW29.79- 65.7 66.7 52.9---
2024-02-23 03:40 am SW 23.3 27.2----29.79- 65.8 66.6 52.7---
2024-02-23 03:30 am SW 23.3 27.2----29.80- 65.8 66.6 52.7---
2024-02-23 03:20 am SW 21.4 27.2 7.2 65.3SSW29.80- 65.8 66.6 52.3---
2024-02-23 03:10 am SW 23.3 27.2 7.2-5.3SSW29.80- 65.7 66.6 52.0---
2024-02-23 03:00 am SW 23.3 29.1----29.81-0.05 65.5 66.7 51.8---
2024-02-23 02:50 am SW 21.4 29.1 7.2 65.4SSW29.81- 65.3 66.6 53.2---
2024-02-23 02:40 am SW 21.4 27.2----29.82- 65.1 66.7 54.0---
2024-02-23 02:30 am SW 23.3 29.1----29.82- 64.9 66.7 55.8---
2024-02-23 02:20 am SW 23.3 29.1 7.2 65.4SSW29.83- 65.1 66.7 57.2---
2024-02-23 02:10 amWSW 25.3 29.1----29.83- 65.7 66.9 58.3---
2024-02-23 02:00 amWSW 23.3 31.1----29.83-0.04 66.4 66.9 59.4---
2024-02-23 01:50 am SW 25.3 31.1 6.9 65.4SSW29.83- 67.1 66.9 59.4---
2024-02-23 01:40 am SW 25.3 31.1 6.9-5.4SSW29.83- 67.6 67.1 58.5---
2024-02-23 01:30 am SW 23.3 29.1----29.83- 67.8 67.1 58.3---
2024-02-23 01:20 am SW 21.4 27.2 7.2 65.4SSW29.83- 67.8 67.1 58.5---
2024-02-23 01:10 am SW 21.4 27.2 7.2-5.4SSW29.84- 67.8 67.1 58.1---
2024-02-23 01:00 am SW 21.4 27.2----29.84-0.05 67.8 67.1 57.9---
2024-02-23 12:50 am SW 23.3 29.1 7.5 115.7 E29.84- 67.8 67.1 57.4---
2024-02-23 12:40 am SW 21.4 25.3----29.84- 67.8 67.3 58.1---
2024-02-23 12:30 am SW 21.4 25.3----29.85- 67.6 67.5 58.1---
2024-02-23 12:20 am SW 21.4 27.2 7.2 115.6 E29.85- 67.8 67.5 57.9---
2024-02-23 12:10 am SW 21.4 27.2 7.2-5.6 E29.85- 67.8 67.5 57.9---
2024-02-23 12:00 am SW 21.4 27.2----29.86-0.05 67.6 67.5 57.7---
2024-02-22 11:50 pm SW 21.4 25.3 7.2 65.5SSW29.86- 67.6 67.6 57.2---
2024-02-22 11:40 pm SW 21.4 27.2----29.87- 67.6 67.6 57.0---
2024-02-22 11:30 pm SW 19.4 25.3----29.87- 67.6 67.6 57.2---
2024-02-22 11:20 pm SW 21.4 27.2 6.9 55.3SSW29.88- 67.5 67.8 56.7---
2024-02-22 11:10 pm SW 21.4 27.2 6.9-5.3SSW29.88- 67.5 67.8 56.7---
2024-02-22 11:00 pmSSW 21.4 27.2----29.87-0.06 67.5 67.8 55.6---
2024-02-22 10:50 pmSSW 23.3 27.2 6.9 105.5 E29.87- 67.3 68.0 55.2---
2024-02-22 10:40 pmSSW 21.4 27.2----29.87- 67.3 68.0 54.7---
2024-02-22 10:30 pmSSW 21.4 27.2----29.88- 67.3 68.0 54.1---
2024-02-22 10:20 pmSSW 23.3 29.1 6.9 115.7ESE29.89- 67.3 68.2 52.7---
2024-02-22 10:10 pmSSW 21.4 27.2----29.89- 67.1 68.2 54.5---
2024-02-22 10:00 pmSSW 23.3 29.1----29.89-0.05 67.1 68.4 53.8---
2024-02-22 09:50 pmSSW 23.3 27.2 7.2 115.7 E29.89- 66.7 68.4 54.3---
2024-02-22 09:40 pmSSW 23.3 27.2----29.89- 66.7 68.4 55.2---
2024-02-22 09:30 pmSSW 21.4 27.2----29.89- 66.6 68.5 55.9---
2024-02-22 09:20 pmSSW 21.4 27.2 5.9 115.4ESE29.90- 66.4 68.5 55.2---
2024-02-22 09:10 pmSSW 21.4 27.2 5.9-5.4ESE29.90- 66.6 68.5 54.3---
2024-02-22 09:00 pm SW 21.4 27.2----29.91-0.04 66.4 68.7 53.6---
2024-02-22 08:50 pmSSW 21.4 25.3 5.9 126.0 E29.91- 66.6 68.7 52.5---
2024-02-22 08:40 pm SW 19.4 25.3----29.91- 66.6 68.7 51.1---
2024-02-22 08:30 pmSSW 19.4 25.3----29.92- 66.7 68.7 49.6---
2024-02-22 08:20 pmSSW 19.4 23.3 5.9 126.2ESE29.92- 66.6 68.9 48.9---
2024-02-22 08:10 pmSSW 19.4 23.3 5.9-6.2ESE29.92- 66.4 68.9 50.5---
2024-02-22 08:00 pmSSW 17.5 23.3----29.92-0.04 66.2 68.9 50.2---
2024-02-22 07:50 pmSSW 17.5 21.4 5.2 136.2ESE29.93- 66.2 68.9 50.4---
2024-02-22 07:40 pmSSW 17.5 21.4----29.93- 66.2 68.9 50.2---
2024-02-22 07:30 pmSSW 17.5 23.3----29.93- 66.0 69.1 50.0---
2024-02-22 07:20 pmSSW 17.5 19.4 5.2 116.3 E29.93- 65.8 69.1 51.4---
2024-02-22 07:10 pmSSW 15.5 19.4 5.2-6.3 E29.94- 65.5 69.1 51.8---
2024-02-22 07:00 pmSSW 15.5 19.4----29.94-0.06 65.3 69.1 51.6---
2024-02-22 06:50 pmSSW 15.5 19.4 5.6 137.2 E29.94- 65.1 69.1 52.0---
2024-02-22 06:40 pm S 13.6 17.5----29.94- 64.8 69.1 51.4---
2024-02-22 06:20 pm S 15.5 19.4 5.2 126.8 E29.94- 64.4 69.1 49.8---
2024-02-22 06:10 pm S 13.6 19.4 5.2-6.8 E29.95- 64.2 69.1 50.4---
2024-02-22 06:00 pm S 15.5 17.5----29.95-0.07 64.0 69.1 48.7---
2024-02-22 05:50 pmSSW 13.6 19.4 5.2 117.1 E29.95- 63.9 69.1 48.6---
2024-02-22 05:40 pmSSW 13.6 17.5----29.95- 63.5 69.1 47.5---
2024-02-22 05:30 pmSSW 13.6 17.5----29.96- 63.3 69.1 47.3---
2024-02-22 05:20 pmSSW 13.6 17.5 5.2 137.3 E29.96- 63.3 69.1 46.8---
2024-02-22 05:10 pmSSW 13.6 17.5 5.2-7.3 E29.96- 63.1 69.3 45.5---
2024-02-22 05:00 pmSSW 11.7 15.5----29.96-0.08 63.0 69.3 45.3---
2024-02-22 04:50 pmSSW 11.7 15.5 5.2 127.3 E29.96- 62.8 69.3 44.1---
2024-02-22 04:40 pm SW 11.7 17.5----29.97- 62.8 69.3 44.6---
2024-02-22 04:30 pmSSW 11.7 15.5----29.98- 62.8 69.3 44.6---
2024-02-22 04:20 pm SW 11.7 15.5 5.6 127.7 E29.99- 62.8 69.3 44.2---
2024-02-22 04:10 pm SW 11.7 17.5 5.6-7.7 E30.00- 62.6 69.3 43.7---
2024-02-22 04:00 pm SW 11.7 15.5----30.00-0.08 62.6 69.3 43.5---
2024-02-22 03:50 pm SW 11.7 15.5 5.6 128.2ENE30.00- 62.4 69.3 42.6---
2024-02-22 03:40 pm SW 9.7 13.6----30.01- 62.2 69.3 43.9---
2024-02-22 03:30 pm SW 9.7 15.5----30.01- 62.2 69.3 42.8---
2024-02-22 03:20 pmSSW 9.7 13.6 5.2 117.7ENE30.02- 62.4 69.3 43.3---
2024-02-22 03:10 pmSSW 9.7 13.6 5.2-7.7ENE30.02- 62.2 69.3 44.1---
2024-02-22 03:00 pm S 9.7 11.7----30.02-0.10 61.9 69.3 43.2---
2024-02-22 02:50 pmSSW 9.7 11.7 5.6 128.0 E30.01- 61.9 69.3 43.5---
2024-02-22 02:40 pmSSW 7.8 11.7----30.02- 61.9 69.3 43.3---
2024-02-22 02:30 pmSSW 7.8 11.7----30.02- 61.7 69.3 43.0---
2024-02-22 02:20 pmSSW 7.8 11.7 5.6 127.9 E30.02- 61.7 69.3 42.6---
2024-02-22 02:10 pmSSW 7.8 11.7 5.6-7.9 E30.03- 61.5 69.3 42.6---
2024-02-22 02:00 pmSSW 7.8 11.7----30.04-0.11 61.5 69.4 42.1---
2024-02-22 01:50 pmSSW 7.8 13.6 6.2 128.4ESE30.05- 61.5 69.4 41.7---
2024-02-22 01:40 pmSSW 7.8 11.7 6.2-8.4ESE30.05- 61.3 69.4 42.1---
2024-02-22 01:30 pmSSW 5.8 9.7----30.06- 61.3 69.3 41.2---
2024-02-22 01:20 pmSSW 7.8 9.7 5.6 127.9ESE30.07- 61.3 69.3 40.5---
2024-02-22 01:10 pmSSW 5.8 7.8 5.6-7.9ESE30.08- 61.3 69.3 40.8---
2024-02-22 01:00 pm S 5.8 7.8----30.08-0.07 61.2 69.4 40.8---
2024-02-22 12:50 pmSSW 5.8 7.8 5.6 127.9ESE30.09- 61.2 69.3 41.0---
2024-02-22 12:40 pm S 3.9 7.8----30.10- 61.0 69.4 40.1---
2024-02-22 12:30 pmSSW 3.9 7.8----30.11- 61.0 69.3 39.6---
2024-02-22 12:20 pmSSW 3.9 7.8 5.9 128.2ESE30.11- 61.2 69.4 40.5---
2024-02-22 12:10 pmSSW 3.9 5.8 5.9-8.2ESE30.11- 61.2 69.3 39.9---
2024-02-22 12:00 pm SW 3.9 5.8----30.12-0.05 61.0 69.3 39.2---
2024-02-22 11:50 am SW 1.9 5.8 6.6 118.3ESE30.12- 61.2 69.3 38.7---
2024-02-22 11:40 amSSW 1.9 5.8----30.13- 61.0 69.3 39.4---
2024-02-22 11:30 amWSW 1.9 5.8----30.14- 60.8 69.3 39.0---
2024-02-22 11:20 amSSE 1.9 5.8 6.6 118.4ESE30.14- 61.5 69.3 40.6---
2024-02-22 11:10 am S 1.9 5.8 6.6-8.4ESE30.14- 61.2 69.3 39.7---
2024-02-22 11:00 amSSW 1.9 3.9----30.15-0.03 61.0 69.3 39.2---
2024-02-22 10:50 am- 0.0 3.9 6.6 118.3ESE30.15- 61.2 69.3 39.6---
2024-02-22 10:40 am SE 1.9 3.9----30.15- 61.0 69.3 39.9---
2024-02-22 10:30 am- 0.0 3.9----30.15- 60.8 69.3 39.4---
2024-02-22 10:20 am SE 1.9 3.9 6.2 128.3ESE30.15- 60.3 69.3 39.6---
2024-02-22 10:10 am E 1.9 5.8 6.2-8.3ESE30.15- 60.1 69.3 39.0---
2024-02-22 10:00 amESE 1.9 5.8----30.15-0.03 60.4 69.3 38.8---
2024-02-22 09:50 am E 1.9 3.9 5.6 118.1ESE30.16- 60.8 69.3 40.6---
2024-02-22 09:40 am E 1.9 3.9----30.16- 60.3 69.4 41.2---
2024-02-22 09:30 amENE 1.9 5.8----30.16- 59.9 69.4 40.8---
2024-02-22 09:20 amENE 1.9 3.9 5.9 128.0ESE30.16- 59.9 69.4 41.4---
2024-02-22 09:10 am N 1.9 5.8----30.16- 59.2 69.4 40.6---
2024-02-22 09:00 am N 3.9 5.8----30.17+0.00 59.0 69.4 41.2---
2024-02-22 08:50 am N 3.9 5.8 5.9 118.0ESE30.18- 59.0 69.4 41.7---

Detailed Wave Summary
for 41004 as of (8:40 am EST)
1340 GMT on 02/23/2024:

These wave data are displayed in rounded times.

     

Click on the graph icon in the table below to see a time series plot of the last five days of that observation.

5-day plot - Significant Wave Height Significant Wave Height (WVHT): 7.9 ft
5-day plot - Swell Height Swell Height (SwH): 2.0 ft
5-day plot - Swell Period Swell Period (SwP): 10.8 sec
5-day plot - Swell Direction Swell Direction (SwD): E
5-day plot - Wind Wave Height Wind Wave Height (WWH): 7.9 ft
5-day plot - Wind Wave Period Wind Wave Period (WWP): 6.7 sec
5-day plot - Wind Wave Direction Wind Wave Direction (WWD):SSW
5-day plot - Wave Steepness Wave Steepness (STEEPNESS):VERY_STEEP
5-day plot - Average Wave Period Average Wave Period (APD): 5.3 sec
Previous observations
TIME
(EST)
5-day plot - Wave Height
WVHT
ft
5-day plot - Swell Height
SwH
ft
5-day plot - Swell Period
SwP
sec
5-day plot - Swell Direction
SwD
 
5-day plot - Wind Wave Height
WWH
ft
5-day plot - Wind Wave Period
WWP
sec
5-day plot - Wind Wave Direction
WWD
 
5-day plot - Wave Steepness
STEEPNESS
 
5-day plot - Average Wave Period
APD
sec
2024-02-23 08:10 am 7.2 2.3 12.1 E 6.9 5.9 SSWVERY_STEEP 5.1
2024-02-23 07:40 am 6.9 2.0 11.4 SE 6.6 5.9 SSWVERY_STEEP 4.9
2024-02-23 07:10 am 7.2 2.3 10.8ESE 6.6 6.2 SSWVERY_STEEP 5.1
2024-02-23 06:40 am 6.6 2.6 12.1 SE 5.9 5.9 SSWVERY_STEEP 4.8
2024-02-23 06:10 am 6.2 3.0 10.8 E 5.6 5.9 SSWVERY_STEEP 4.9
2024-02-23 05:40 am 6.6 3.0 11.4ESE 5.9 5.9 SSWVERY_STEEP 5.2
2024-02-23 05:10 am 6.9 3.3 12.9 E 5.9 6.2 SSWVERY_STEEP 5.3
2024-02-23 04:40 am 6.6 3.0 10.8ESE 5.9 6.7 SSW STEEP 5.2
2024-02-23 04:10 am 7.2 3.0 12.1 E 6.6 5.9 SSWVERY_STEEP 5.2
2024-02-23 03:40 am 6.9 3.0 11.4 E 6.2 6.2 SSWVERY_STEEP 5.4
2024-02-23 03:10 am 7.2 3.3 12.1 E 6.6 6.2 SSWVERY_STEEP 5.3
2024-02-23 02:40 am 7.2 3.6 10.8 E 6.6 6.2 SSWVERY_STEEP 5.4
2024-02-23 02:10 am 7.2 3.3 12.9ESE 6.6 5.9 SSWVERY_STEEP 5.4
2024-02-23 01:40 am 6.9 3.6 11.4ESE 5.6 5.9 SSWVERY_STEEP 5.4
2024-02-23 01:10 am 7.2 3.6 12.9 E 6.6 5.9 SSWVERY_STEEP 5.4
2024-02-23 12:40 am 7.5 4.3 11.4 E 6.2 5.9 SSW AVERAGE 5.7
2024-02-23 12:10 am 7.2 4.3 11.4 E 5.9 5.9 S AVERAGE 5.6
2024-02-22 11:40 pm 7.2 3.9 10.0 E 5.9 5.6 SSWVERY_STEEP 5.5
2024-02-22 11:10 pm 6.9 3.6 11.4ESE 5.9 5.3 SSWVERY_STEEP 5.3
2024-02-22 10:40 pm 6.9 4.6 10.0 E 5.2 5.0 SW AVERAGE 5.5
2024-02-22 10:10 pm 6.9 4.9 11.4ESE 4.9 4.8 SSW SWELL 5.7
2024-02-22 09:40 pm 7.2 5.2 11.4 E 4.9 4.3 SW SWELL 5.7
2024-02-22 09:10 pm 5.9 4.6 11.4ESE 3.9 4.0 SSW SWELL 5.4
2024-02-22 08:40 pm 5.9 4.9 12.1 E 3.0 4.2 SSW SWELL 6.0
2024-02-22 08:10 pm 5.9 5.2 12.1ESE 3.0 3.3 SSW SWELL 6.2
2024-02-22 07:40 pm 5.2 4.6 12.9ESE 2.3 3.4 SW SWELL 6.2
2024-02-22 07:10 pm 5.2 4.6 10.8 E 2.0 3.3 SSW SWELL 6.3
2024-02-22 06:40 pm 5.6 5.2 12.9 E 1.6 3.0 SSW SWELL 7.2
2024-02-22 06:10 pm 5.2 4.9 12.1 E 1.6 2.9 SSW SWELL 6.8
2024-02-22 05:40 pm 5.2 4.9 10.8 E 1.6 2.7 SSW SWELL 7.1
2024-02-22 05:10 pm 5.2 5.2 12.9 E 1.6 5.0 E SWELL 7.3
2024-02-22 04:40 pm 5.2 4.9 12.1 E 1.6 5.3 E SWELL 7.3
2024-02-22 04:10 pm 5.6 5.2 12.1 E 2.0 4.8 E SWELL 7.7
2024-02-22 03:40 pm 5.6 5.6 12.1ENE 1.3 4.5 E SWELL 8.2
2024-02-22 03:10 pm 5.2 5.2 10.8ENE 1.3 4.2 E SWELL 7.7
2024-02-22 02:40 pm 5.6 5.6 12.1 E 1.0 3.2 E SWELL 8.0
2024-02-22 02:10 pm 5.6 5.2 12.1 E 1.0 3.8 ESE SWELL 7.9
2024-02-22 01:40 pm 6.2 6.2 12.1ESE 1.0 3.1 E SWELL 8.4
2024-02-22 01:10 pm 5.6 5.6 12.1ESE 1.0 3.7 E SWELL 7.9
2024-02-22 12:40 pm 5.6 5.6 12.1ESE 1.0 3.8 ENE SWELL 7.9
2024-02-22 12:10 pm 5.9 5.9 12.1ESE 1.0 3.8 E SWELL 8.2
2024-02-22 11:40 am 6.6 6.6 11.4ESE 1.0 3.8 E SWELL 8.3
2024-02-22 11:10 am 6.6 6.6 11.4ESE 1.0 3.7 E SWELL 8.4
2024-02-22 10:40 am 6.6 6.6 11.4ESE 1.0 4.0 E SWELL 8.3
2024-02-22 10:10 am 6.2 6.2 12.1ESE 1.0 4.0 E SWELL 8.3
2024-02-22 09:40 am 5.6 5.6 11.4ESE 1.0 4.0 E SWELL 8.1
2024-02-22 09:10 am 5.9 5.9 12.1ESE 1.0 3.8 E SWELL 8.0

Plot of wave energy versus frequency (and period)